Regional Weather Roundup
Issued by NWS

Home | Current Version | Previous Version | Graphics & Text | Print | Product List | Glossary On
Versions: 1 2 3 4 5 6 7 8 9 10 11 12 13 14 15 16 17 18 19 20 21 22 23 24 25 26 27 28 29 30 31 32 33 34 35 36 37 38 39 40 41 42 43 44 45 46 47 48 49 50
000
ASUS43 KIND 231109
RWRIN

WEATHER ROUNDUP FOR INDIANA
NATIONAL WEATHER SERVICE INDIANAPOLIS IN
700 AM EDT MON OCT 23 2017

NOTE: "FAIR" INDICATES FEW OR NO CLOUDS BELOW 12,000 FEET WITH NO
SIGNIFICANT WEATHER AND/OR OBSTRUCTIONS TO VISIBILITY.

* - STATION DOES NOT REPORT WEATHER SUCH AS PRECIPITATION OR FOG.

+ - STATION NOT QUALITY CONTROLLED BY THE NATIONAL WEATHER SERVICE.
    USE DATA WITH CAUTION...ESPECIALLY DEWPOINT AND RELATIVE
    HUMIDITY OBSERVATIONS.

INZ001>003-010>013-019-020-231200-
NORTHWEST INDIANA

CITY           SKY/WX    TMP DP  RH WIND       PRES   REMARKS
GARY /AIRPORT/ RAIN      55  54  94 N17G29    29.88F
KNOX *+        CLOUDY    55  55 100 N7        29.84F
LA PORTE +     HVY RAIN  55  55  97 N12       29.86F
MICHIGAN CITY+ RAIN      55  55 100 N8        29.87F
MONTICELLO +   LGT RAIN  59  57  96 E3        29.80F
RENSSELAER +   RAIN      55  52  88 CALM      29.83F
VALPARAISO     RAIN      57  56  96 N9        29.85F FOG

$$

LMZ046-743>745-231200-
SOUTHERN LAKE MICHIGAN

STATION/POSITION TIME  TEMP    WIND        PRES    WAVE
                       AIR SEA DIR/SP/G            HT
                 (UTC) (F)     (DEG/KT/KT) (MB)    (FT)
BURNS HARBOR     1040   56      10/ 17/ 24 1011.5F
MICHIGAN CITY    1040   56      10/ 17/ 19   N/A
5NW MICH CITY    1100   56 58   10/ 17/ 21   N/A     4

$$

INZ004-005-014>016-021>024-231200-
NORTH CENTRAL INDIANA

CITY           SKY/WX    TMP DP  RH WIND       PRES   REMARKS
ELKHART        LGT RAIN  57  55  94 CALM      29.86
GOSHEN         LGT RAIN  61  56  83 SE3       29.85F
LOGANSPORT +   LGT RAIN  59  57  94 E6        29.83F
PERU/GRISSOM   DRIZZLE   61  59  92 SE8       29.83F
SOUTH BEND     LGT RAIN  56  56 100 N6        29.86F
WARSAW +       CLOUDY    61  55  82 SE3       29.85F

$$

INZ006>009-017-018-025>027-231200-
NORTHEAST INDIANA

CITY           SKY/WX    TMP DP  RH WIND       PRES   REMARKS
AUBURN +       CLOUDY    63  50  63 CALM      29.88F
FORT WAYNE     CLOUDY    63  51  65 SE6       29.87F
HUNTINGTON +   CLOUDY    63  52  68 SE5       29.85F
KENDALLVILLE + CLOUDY    62  52  70 SE6       29.88F

$$

INZ028-029-035-036-043>045-051>053-231200-
WEST CENTRAL INDIANA

CITY           SKY/WX    TMP DP  RH WIND       PRES   REMARKS
CRAWFORDSVL +  DRIZZLE   61  61 100 SE9       29.81
GREENCASTLE +  CLOUDY    61  61 100 SE9       29.81F
LAFAYETTE      LGT RAIN  60  60 100 E8        29.80F
TERRE HAUTE    CLOUDY    65  62  90 S9        29.78F

$$

INZ030>032-037>040-046>048-054>057-064-065-231200-
CENTRAL INDIANA

CITY           SKY/WX    TMP DP  RH WIND       PRES   REMARKS
CP ATTERBURY + CLOUDY    61  57  88 SE7       29.83F
COLUMBUS       LGT RAIN  63  57  82 SE9       29.83
FRANKFORT +    RAIN      63  61  93 SE9       29.83F
GREENWOOD *+   CLOUDY    64  60  86 SE7       29.84F
INDIANAPOLIS   LGT RAIN  62  59  90 SE10      29.82F
-EAGLE CREEK   LGT RAIN  62  58  86 SE6       29.82F
KOKOMO +       LGT RAIN  62  57  83 SE7       29.84F
MT COMFORT *+  CLOUDY    61  59  94 SE6       29.85F
SHELBYVILLE    CLOUDY    63  56  78 SE10      29.83F
ZIONSVILLE +   RAIN      60  58  95 SE9       29.84F

$$

INZ033-034-041-042-049-050-058-059-231200-
EAST CENTRAL INDIANA

CITY           SKY/WX    TMP DP  RH WIND       PRES   REMARKS
MUNCIE         CLOUDY    65  54  67 S9        29.86F
RICHMOND +     CLOUDY    61  54  77 SE10      29.90F

$$

INZ060-061-067>069-081>083-085>088-231200-
SOUTHWEST INDIANA

CITY           SKY/WX    TMP DP  RH WIND       PRES   REMARKS
EVANSVILLE     LGT RAIN  56  55  97 NE10      29.76F
HUNTINGBURG +  LGT RAIN  62  61  96 SW12      29.83R
WASHINGTON +   DRIZZLE  N/A N/A N/A SW10G17   29.80R

$$

INZ062-063-066-070>080-084-089>092-231200-
SOUTH CENTRAL AND SOUTHEAST INDIANA

CITY           SKY/WX    TMP DP  RH WIND       PRES   REMARKS
BLOOMINGTON    CLOUDY    63  60  90 SE6       29.80F
MADISON *+     CLOUDY    63  57  82 E8        29.86F
NORTH VERNON + LGT RAIN  61  57  88 SE7       29.85F

$$




USA.gov is the U.S. government's official web portal to all federal, state and local government web resources and services.